Location: Unnamed
(51.8936°N, 11.0665°E)
Time: 00:48:39
(UTC+02:00)

NO-84 - Pass Details

Date: 04 October 2021
Orbit: 283 x 351 km, 55.0° (Epoch: 20 October)

Event Time Altitude Azimuth Distance (km) Brightness Sun altitude
Rises 20:44:02 0° 249° (WSW) 2,003 ? -18.9°
Reaches altitude 10° 20:45:57 10° 251° (WSW) 1,195 ? -19.1°
Enters shadow 20:48:00 49° 260° (W) 416 ? -19.4°
